Albany, NY

6:20 AM EST on December 16, 2019 (GMT -0500)
Albany International

Weather History for KALB - October, 2019

Change the Weather History Date:

Friday, October 25, 2019

  Actual Average Record
Temperature  
Mean Temperature 53 °F 46 °F  
Max Temperature 57 °F 56 °F 77 °F (1963)
Min Temperature 48 °F 37 °F 19 °F (1981)
Degree Days  
Heating Degree Days 12 19  
Month to date heating degree days 304 362  
Since 1 July heating degree days 381 529  
Cooling Degree Days 0 0  
Month to date cooling degree days 4 0  
Year to date cooling degree days 771 594  
Growing Degree Days 3 (Base 50)    
Moisture  
Dew Point 42 °F    
Average Humidity 68    
Maximum Humidity 80    
Minimum Humidity 51    
Precipitation  
Precipitation T in 0.11 in 2.06 in (2008)
Month to date precipitation 5.79 2.99  
Year to date precipitation 37.00 32.44  
Snow  
Snow 0.00 in 0.00 in T in (2005)
Month to date snowfall 0.0 0.2  
Since 1 July snowfall 0.0 0.2  
Since 1 September snowfall 0.0 0.2  
Snow Depth 0.00 in    
Sea Level Pressure  
Sea Level Pressure 30.27 in    
Wind  
Wind Speed 2 mph ()    
Max Wind Speed 7 mph    
Max Gust Speed 10 mph    
Visibility 10.0 miles    
Events Rain    
T = Trace of Precipitation, MM = Missing Value Source: Averaged Metar Reports

Daily Weather History Graph

Daily Weather History Graph

Search for Another Location

Airport or City:

Astronomy

Oct. 25, 2019 Rise Set
Actual Time 7:20 AM EDT 5:57 PM EDT
Civil Twilight 6:51 AM EDT 6:26 PM EDT
Nautical Twilight 6:18 AM EDT 6:59 PM EDT
Astronomical Twilight 5:45 AM EDT 7:32 PM EDT
Moon 3:52 AM EDT (10/25) 5:03 PM EDT (10/25)
Length of Visible Light 11h 35m
Length of Day
10h 37m
Waning Crescent, 9% of the Moon is Illuminated
Oct 25
Waning Crescent
Oct 27
New
Nov 4
First Quarter
Nov 12
Full
Nov 19
Last Quarter

Hourly Weather History & Observations

Time (EDT) Temp. Dew Point Humidity Pressure Visibility Wind Dir Wind Speed Gust Speed Precip Events Conditions
12:51 AM 51.1 °F 39.9 °F 66% 30.31 in 10.0 mi WNW 6.9 mph - N/A   Mostly Cloudy
1:51 AM 52.0 °F 41.0 °F 66% 30.32 in 10.0 mi SSW 3.5 mph - N/A   Mostly Cloudy
2:51 AM 48.9 °F 41.0 °F 74% 30.32 in 10.0 mi Calm Calm - N/A   Overcast
3:51 AM 48.9 °F 41.0 °F 74% 30.32 in 10.0 mi Calm Calm - N/A   Overcast
4:51 AM 48.0 °F 41.0 °F 77% 30.33 in 10.0 mi Calm Calm - N/A   Overcast
5:51 AM 50.0 °F 42.1 °F 74% 30.33 in 10.0 mi Calm Calm - N/A   Overcast
6:51 AM 51.1 °F 42.1 °F 71% 30.32 in 10.0 mi Calm Calm - N/A   Overcast
7:51 AM 50.0 °F 42.1 °F 74% 30.33 in 10.0 mi Calm Calm - N/A   Mostly Cloudy
8:51 AM 50.0 °F 43.0 °F 77% 30.33 in 10.0 mi Calm Calm - N/A   Mostly Cloudy
9:51 AM 53.1 °F 42.1 °F 66% 30.32 in 10.0 mi Calm Calm - N/A   Overcast
10:51 AM 54.0 °F 42.1 °F 64% 30.32 in 10.0 mi NNW 3.5 mph - N/A   Mostly Cloudy
11:51 AM 55.9 °F 42.1 °F 60% 30.32 in 10.0 mi Calm Calm - N/A   Overcast
12:51 PM 55.9 °F 41.0 °F 57% 30.30 in 10.0 mi NNW 4.6 mph - N/A   Overcast
1:51 PM 57.0 °F 39.9 °F 53% 30.26 in 10.0 mi Calm Calm - N/A   Overcast
2:51 PM 55.9 °F 39.9 °F 55% 30.23 in 10.0 mi North 4.6 mph - N/A   Overcast
3:51 PM 55.9 °F 41.0 °F 57% 30.21 in 10.0 mi NNE 4.6 mph - N/A   Overcast
5:51 PM 54.0 °F 41.0 °F 62% 30.20 in 10.0 mi NNW 6.9 mph - N/A   Overcast
6:51 PM 53.1 °F 41.0 °F 64% 30.21 in 10.0 mi North 4.6 mph - N/A   Overcast
7:51 PM 53.1 °F 39.9 °F 61% 30.19 in 10.0 mi NNW 3.5 mph - N/A   Overcast
8:51 PM 52.0 °F 42.1 °F 69% 30.20 in 10.0 mi North 3.5 mph - 0.00 in Rain Light Rain
9:51 PM 50.0 °F 43.0 °F 77% 30.20 in 10.0 mi NNW 3.5 mph - 0.00 in Rain Light Rain
10:51 PM 50.0 °F 44.1 °F 80% 30.21 in 10.0 mi NNW 5.8 mph - 0.00 in Rain Light Rain
11:51 PM 50.0 °F 44.1 °F 80% 30.21 in 10.0 mi NW 5.8 mph - 0.00 in Rain Light Rain